Weather History for Patuxent River, MD

Change the Weather History Date:

Saturday, January 19, 2013

  Actual Average Record
Temperature  
Mean Temperature 42 °F -  
Max Temperature 52 °F 40 °F 60 °F (1989)
Min Temperature 32 °F 25 °F 6 °F (1977)
Degree Days  
Heating Degree Days 23    
Moisture  
Dew Point 25 °F    
Average Humidity 54    
Maximum Humidity 70    
Minimum Humidity 38    
Precipitation  
Precipitation 0.00 in - - ()
Sea Level Pressure  
Sea Level Pressure 30.28 in    
Wind  
Wind Speed 8 mph (SSW)    
Max Wind Speed 17 mph    
Max Gust Speed 25 mph    
Visibility 10 miles    
Events      
Averages and records for this station are not official NWS values.
T = Trace of Precipitation, MM = Missing Value Source: NWS Daily Summary

Daily Weather History Graph

Daily Weather History Graph

Search for Another Location

Airport:

Trip Planner

Search our weather history database for the weather conditions in past years. The results will help you decide how hot, cold, wet, or windy it might be!

Date:

Astronomy

Jan. 19, 2013 Rise Set
Actual Time 7:19 AM EST 5:13 PM EST
Civil Twilight 6:50 AM EST 5:42 PM EST
Nautical Twilight 6:18 AM EST 6:14 PM EST
Astronomical Twilight 5:46 AM EST 6:46 PM EST
Moon 11:37 AM EST (1/19) 12:52 AM EST (1/19)
Length of Visible Light 10h 51m
Length of Day
9h 54m
First Quarter, 57% of the Moon is Illuminated
Jan 19
First Quarter
Jan 26
Full
Feb 3
Last Quarter
Feb 10
New
Feb 17
First Quarter

Hourly Weather History & Observations

Time (EST) Temp. Windchill Dew Point Humidity Pressure Visibility Wind Dir Wind Speed Gust Speed Precip Events Conditions
12:52 AM 32.0 °F - 21.9 °F 66% 30.46 in 10.0 mi Calm Calm - N/A   Clear
1:52 AM 34.0 °F 28.8 °F 24.1 °F 67% 30.45 in 10.0 mi SSE 5.8 mph - N/A   Clear
2:52 AM 35.1 °F 30.1 °F 24.1 °F 64% 30.44 in 10.0 mi South 5.8 mph - N/A   Clear
3:52 AM 34.0 °F 27.2 °F 24.1 °F 67% 30.43 in 10.0 mi South 8.1 mph - N/A   Clear
4:52 AM 34.0 °F 27.2 °F 24.1 °F 67% 30.42 in 10.0 mi South 8.1 mph - N/A   Clear
5:52 AM 34.0 °F 28.8 °F 24.1 °F 67% 30.42 in 10.0 mi SSW 5.8 mph - N/A   Clear
6:03 AM 33.8 °F 27.0 °F 24.8 °F 70% 30.41 in 10.0 mi SSW 8.1 mph - N/A   Clear
6:52 AM 34.0 °F 26.6 °F 23.0 °F 64% 30.41 in 10.0 mi South 9.2 mph - N/A   Clear
7:52 AM 34.0 °F 26.6 °F 23.0 °F 64% 30.40 in 10.0 mi South 9.2 mph 19.6 mph N/A   Clear
8:52 AM 37.0 °F 27.7 °F 24.1 °F 59% 30.40 in 10.0 mi SSW 16.1 mph 21.9 mph N/A   Clear
9:52 AM 39.9 °F 32.5 °F 25.0 °F 55% 30.40 in 10.0 mi SW 12.7 mph 20.7 mph N/A   Clear
10:52 AM 43.0 °F 35.1 °F 25.0 °F 49% 30.37 in 10.0 mi SSW 17.3 mph 25.3 mph N/A   Clear
11:52 AM 46.9 °F - 25.0 °F 42% 30.31 in 10.0 mi South 12.7 mph 20.7 mph N/A   Clear
12:52 PM 48.9 °F - 27.0 °F 43% 30.26 in 10.0 mi SSW 13.8 mph 19.6 mph N/A   Clear
1:52 PM 51.1 °F - 28.0 °F 41% 30.23 in 10.0 mi South 13.8 mph 19.6 mph N/A   Clear
2:52 PM 52.0 °F - 28.0 °F 40% 30.19 in 10.0 mi Variable 5.8 mph - N/A   Clear
3:52 PM 52.0 °F - 27.0 °F 38% 30.17 in 10.0 mi South 8.1 mph 17.3 mph N/A   Clear
4:52 PM 50.0 °F - 27.0 °F 41% 30.15 in 10.0 mi South 8.1 mph 16.1 mph N/A   Clear
5:52 PM 46.9 °F - 28.0 °F 48% 30.14 in 10.0 mi South 6.9 mph - N/A   Clear
6:52 PM 46.9 °F - 28.0 °F 48% 30.13 in 10.0 mi South 10.4 mph - N/A   Clear
7:52 PM 46.0 °F 40.2 °F 27.0 °F 47% 30.13 in 10.0 mi SSW 12.7 mph 18.4 mph N/A   Clear
8:52 PM 46.0 °F 40.2 °F 26.1 °F 46% 30.12 in 10.0 mi SSW 12.7 mph 20.7 mph N/A   Clear
9:52 PM 45.0 °F 38.9 °F 26.1 °F 48% 30.09 in 10.0 mi SSW 12.7 mph 20.7 mph N/A   Clear
10:52 PM 45.0 °F 38.2 °F 26.1 °F 48% 30.07 in 10.0 mi SSW 15.0 mph 21.9 mph N/A   Clear
11:52 PM 44.1 °F 37.4 °F 26.1 °F 49% 30.04 in 10.0 mi SSW 13.8 mph - N/A   Clear